Weather History for KIKT - February, 2014

Change the Weather History Date:

Friday, February 21, 2014

  Actual Average Record
Temperature  
Mean Temperature 66 °F -  
Max Temperature 73 °F - - ()
Min Temperature 60 °F - - ()
Cooling Degree Days 2    
Growing Degree Days 16 (Base 50)    
Moisture  
Dew Point 53 °F    
Average Humidity 67    
Maximum Humidity 100    
Minimum Humidity 45    
Precipitation  
Precipitation 0.00 in - - ()
Sea Level Pressure  
Sea Level Pressure 30.02 in    
Wind  
Wind Speed 13 mph (NNE)    
Max Wind Speed 34 mph    
Max Gust Speed 41 mph    
Visibility 8 miles    
Events      
T = Trace of Precipitation, MM = Missing Value Source: NWS Daily Summary

Daily Weather History Graph

Daily Weather History Graph

Search for Another Location

Airport or City:

Trip Planner

Search our weather history database for the weather conditions in past years. The results will help you decide how hot, cold, wet, or windy it might be!

Date:

Astronomy

Feb. 21, 2014 Rise Set
Actual Time 6:25 AM CST 5:47 PM CST
Civil Twilight 6:02 AM CST 6:11 PM CST
Nautical Twilight 5:34 AM CST 6:39 PM CST
Astronomical Twilight 5:07 AM CST 7:06 PM CST
Moon No Moon Rise 10:22 AM CST (2/21)
Length of Visible Light 12h 09m
Length of Day
11h 21m
Waning Gibbous, 60% of the Moon is Illuminated
Feb 21
Waning Gibbous
Feb 22
Last Quarter
Mar 1
New
Mar 8
First Quarter
Mar 16
Full

Hourly Weather History & Observations

Time (CST) Temp. Dew Point Humidity Pressure Visibility Wind Dir Wind Speed Gust Speed Precip Events Conditions
12:15 AM 73.4 °F 71.6 °F 94% 29.94 in 6.0 mi South 13.8 mph 21.9 mph N/A   Clear
12:35 AM 73.4 °F 71.6 °F 94% 29.94 in 6.0 mi South 16.1 mph 25.3 mph N/A   Clear
12:55 AM 73.4 °F 71.6 °F 94% 29.94 in 6.0 mi Calm Calm 18.4 mph N/A   Clear
1:15 AM 73.4 °F 71.6 °F 94% 29.94 in 5.0 mi Calm Calm - N/A   Mostly Cloudy
1:35 AM 73.4 °F 71.6 °F 94% 29.95 in 6.0 mi Calm Calm 12.7 mph N/A   Overcast
1:55 AM 73.4 °F 71.6 °F 94% 29.94 in 6.0 mi Variable 4.6 mph 13.8 mph N/A   Overcast
2:15 AM 73.4 °F 71.6 °F 94% 29.93 in 5.0 mi Variable 5.8 mph 11.5 mph N/A   Overcast
2:20 AM 73.4 °F 71.6 °F 94% 29.93 in 5.0 mi Variable 3.5 mph 11.5 mph N/A   Mostly Cloudy
2:55 AM 73.4 °F 71.6 °F 94% 29.92 in 5.0 mi Variable 6.9 mph 15.0 mph N/A   Mostly Cloudy
3:15 AM 73.4 °F 71.6 °F 94% 29.92 in 5.0 mi SW 10.4 mph 21.9 mph N/A   Mostly Cloudy
3:35 AM 73.4 °F 71.6 °F 94% 29.92 in 4.0 mi SSW 11.5 mph 25.3 mph N/A   Mostly Cloudy
3:55 AM 73.4 °F 71.6 °F 94% 29.92 in 5.0 mi Variable 6.9 mph 18.4 mph N/A   Overcast
4:15 AM 73.4 °F 71.6 °F 94% 29.91 in 4.0 mi Variable 5.8 mph 20.7 mph N/A   Mostly Cloudy
4:35 AM 73.4 °F 71.6 °F 94% 29.90 in 4.0 mi Variable 6.9 mph 26.5 mph N/A   Partly Cloudy
4:55 AM 73.4 °F 71.6 °F 94% 29.91 in 4.0 mi SW 11.5 mph 20.7 mph N/A   Mostly Cloudy
5:15 AM 73.4 °F 71.6 °F 94% 29.92 in - SW 16.1 mph 26.5 mph N/A   Overcast
5:35 AM 71.6 °F 71.6 °F 100% 29.93 in 3.0 mi WSW 24.2 mph 33.4 mph N/A   Overcast
5:55 AM 66.2 °F 62.6 °F 88% 29.95 in 4.0 mi NW 8.1 mph 20.7 mph N/A   Overcast
6:15 AM 62.6 °F 60.8 °F 94% 29.97 in 6.0 mi Variable 5.8 mph - N/A   Overcast
6:35 AM 62.6 °F 57.2 °F 82% 29.98 in 7.0 mi Variable 6.9 mph 17.3 mph N/A   Overcast
6:55 AM 60.8 °F 55.4 °F 82% 30.00 in 6.0 mi NW 9.2 mph - N/A   Haze
7:15 AM 60.8 °F 55.4 °F 82% 30.02 in 7.0 mi NW 8.1 mph 17.3 mph N/A   Overcast
7:35 AM 60.8 °F 53.6 °F 77% 30.02 in 8.0 mi NNW 11.5 mph 27.6 mph N/A   Overcast
7:55 AM 60.8 °F 53.6 °F 77% 30.03 in 9.0 mi North 18.4 mph 31.1 mph N/A   Overcast
8:15 AM 60.8 °F 53.6 °F 77% 30.04 in 9.0 mi North 26.5 mph 36.8 mph N/A   Overcast
8:35 AM 60.8 °F 42.8 °F 52% 30.06 in 10.0 mi North 26.5 mph 35.7 mph N/A   Overcast
8:55 AM 60.8 °F 46.4 °F 59% 30.06 in 10.0 mi NNE 31.1 mph - N/A   Overcast
9:15 AM 60.8 °F 41.0 °F 48% 30.07 in 10.0 mi NNE 34.5 mph 40.3 mph N/A   Overcast
9:35 AM 60.8 °F 41.0 °F 48% 30.08 in 10.0 mi North 25.3 mph 41.4 mph N/A   Overcast
9:55 AM 60.8 °F 44.6 °F 55% 30.09 in 10.0 mi NNE 28.8 mph - N/A   Overcast
10:15 AM 60.8 °F 41.0 °F 48% 30.08 in 10.0 mi NNE 28.8 mph 34.5 mph N/A   Overcast
10:35 AM 62.6 °F 41.0 °F 45% 30.08 in 10.0 mi NNE 28.8 mph 35.7 mph N/A   Overcast
10:55 AM 60.8 °F 42.8 °F 52% 30.08 in 10.0 mi NNE 28.8 mph - N/A   Overcast
11:15 AM 62.6 °F 41.0 °F 45% 30.07 in 10.0 mi NNE 25.3 mph 32.2 mph N/A   Mostly Cloudy
11:35 AM 62.6 °F 41.0 °F 45% 30.07 in 10.0 mi NNE 26.5 mph - N/A   Mostly Cloudy
11:55 AM 62.6 °F 42.8 °F 48% 30.06 in 10.0 mi NNE 23.0 mph 29.9 mph N/A   Partly Cloudy
12:15 PM 62.6 °F 44.6 °F 52% 30.06 in 10.0 mi NNE 21.9 mph - N/A   Scattered Clouds
12:35 PM 62.6 °F 44.6 °F 52% 30.05 in 10.0 mi NE 16.1 mph 26.5 mph N/A   Overcast
12:55 PM 60.8 °F 42.8 °F 52% 30.04 in - NNE 21.9 mph - N/A   Overcast
1:15 PM 60.8 °F 44.6 °F 55% 30.04 in 10.0 mi NNE 20.7 mph - N/A   Overcast
1:35 PM 60.8 °F 46.4 °F 59% 30.03 in 10.0 mi NNE 20.7 mph - N/A   Overcast
1:55 PM 60.8 °F 46.4 °F 59% 30.03 in 10.0 mi NNE 19.6 mph - N/A   Overcast
2:15 PM 60.8 °F 46.4 °F 59% 30.03 in 10.0 mi NNE 18.4 mph - N/A   Overcast
2:35 PM 60.8 °F 46.4 °F 59% 30.03 in 10.0 mi NNE 19.6 mph - N/A   Overcast
2:55 PM 60.8 °F 44.6 °F 55% 30.03 in 10.0 mi NNE 19.6 mph - N/A   Scattered Clouds
3:15 PM 60.8 °F 44.6 °F 55% 30.03 in 10.0 mi NNE 19.6 mph - N/A   Clear
3:35 PM 60.8 °F 46.4 °F 59% 30.04 in 10.0 mi NNE 16.1 mph - N/A   Partly Cloudy
3:55 PM 60.8 °F 46.4 °F 59% 30.04 in 10.0 mi NNE 16.1 mph - N/A   Scattered Clouds
4:15 PM 60.8 °F 46.4 °F 59% 30.05 in 10.0 mi NE 11.5 mph 19.6 mph N/A   Mostly Cloudy
4:35 PM 60.8 °F 44.6 °F 55% 30.05 in 10.0 mi NE 11.5 mph - N/A   Overcast
4:55 PM 62.6 °F 46.4 °F 55% 30.05 in 10.0 mi NE 9.2 mph 16.1 mph N/A   Overcast
5:15 PM 60.8 °F 46.4 °F 59% 30.05 in 10.0 mi NE 11.5 mph - N/A   Mostly Cloudy
5:35 PM 60.8 °F 46.4 °F 59% 30.05 in 10.0 mi NNE 11.5 mph - N/A   Partly Cloudy
5:55 PM 62.6 °F 46.4 °F 55% 30.05 in 10.0 mi NE 9.2 mph 16.1 mph N/A   Mostly Cloudy
6:15 PM 62.6 °F 46.4 °F 55% 30.05 in 10.0 mi NE 11.5 mph 17.3 mph N/A   Overcast
6:35 PM 62.6 °F 44.6 °F 52% 30.04 in 10.0 mi NNE 12.7 mph - N/A   Overcast
6:55 PM 62.6 °F 46.4 °F 55% 30.05 in 10.0 mi NNE 12.7 mph - N/A   Overcast
7:15 PM 62.6 °F 46.4 °F 55% 30.05 in 10.0 mi NNE 13.8 mph - N/A   Mostly Cloudy
7:35 PM 62.6 °F 46.4 °F 55% 30.06 in 10.0 mi NNE 13.8 mph - N/A   Mostly Cloudy
7:55 PM 62.6 °F 46.4 °F 55% 30.06 in 10.0 mi NNE 11.5 mph - N/A   Partly Cloudy
8:15 PM 60.8 °F 46.4 °F 59% 30.07 in 10.0 mi NNE 12.7 mph - N/A   Clear
8:35 PM 62.6 °F 46.4 °F 55% 30.07 in 10.0 mi NNE 11.5 mph - N/A   Clear
8:55 PM 62.6 °F 46.4 °F 55% 30.08 in 10.0 mi North 11.5 mph - N/A   Partly Cloudy
9:15 PM 62.6 °F 46.4 °F 55% 30.08 in 10.0 mi NNE 12.7 mph - N/A   Mostly Cloudy
9:35 PM 62.6 °F 46.4 °F 55% 30.08 in 10.0 mi NNE 11.5 mph - N/A   Overcast
9:55 PM 62.6 °F 46.4 °F 55% 30.07 in 10.0 mi NNE 13.8 mph - N/A   Scattered Clouds
10:15 PM 62.6 °F 46.4 °F 55% 30.07 in 10.0 mi NNE 12.7 mph - N/A   Clear
10:35 PM 62.6 °F 46.4 °F 55% 30.08 in 10.0 mi NNE 12.7 mph - N/A   Partly Cloudy
10:55 PM 62.6 °F 46.4 °F 55% 30.08 in 10.0 mi NNE 12.7 mph - N/A   Mostly Cloudy
11:15 PM 62.6 °F 48.2 °F 59% 30.07 in 10.0 mi NNE 10.4 mph - N/A   Mostly Cloudy
11:35 PM 62.6 °F 48.2 °F 59% 30.07 in 10.0 mi NE 6.9 mph 13.8 mph N/A   Clear
11:55 PM 64.4 °F 48.2 °F 56% 30.07 in 10.0 mi NE 8.1 mph 16.1 mph N/A   Clear